Tracking 18945 objects as of 19-Jan-2018
HD Live streaming from Space Station
objects crossing your sky now

COSMOS 2157

Track COSMOS 2157 now!
10-day predictions
COSMOS 2157 is classified as:


NORAD ID: 21728
Int'l Code: 1991-068A
Perigee: 1,414.3 km
Apogee: 1,419.8 km
Inclination: 82.6 °
Period: 114.0 minutes
Semi major axis: 7788 km
RCS: 1.0996 m2 (large)
Launch date: September 28, 1991
Source: Commonwealth of Independent States (former USSR) (CIS)
Launch site: PLESETSK MISSILE AND SPACE COMPLEX (PKMTR)
aabbcc
Your satellite tracking list
Your tracking list is empty




NASA's NSSDC Master Catalog

Two Line Element Set (TLE):
1 21728U 91068A   18018.51322930 +.00000032 +00000-0 +11578-3 0  9997
2 21728 082.5806 120.7680 0003535 275.6187 084.4502 12.63173716212899
Source of the keplerian elements: AFSPC